Jonesville, VA

3:45 AM EST on February 21, 2017 (GMT -0500)
Jonesville

Weather History for K0VG - November, 2012

Change the Weather History Date:

Friday, November 16, 2012

  Actual Average (KLNP) Record (KLNP)
Temperature  
Mean Temperature 40 °F -  
Max Temperature 57 °F 51 °F 64 °F (1998)
Min Temperature 23 °F 34 °F 21 °F (1997)
Degree Days  
Heating Degree Days 25    
Moisture  
Dew Point 27 °F    
Average Humidity 70    
Maximum Humidity 100    
Minimum Humidity 31    
Precipitation  
Precipitation 0.00 in - - ()
Sea Level Pressure  
Sea Level Pressure 30.35 in    
Wind  
Wind Speed 0 mph (NE)    
Max Wind Speed 6 mph    
Max Gust Speed -    
Visibility 10 miles    
Events      
Averages and records for this station are not official NWS values.
T = Trace of Precipitation, MM = Missing Value Source: NWS Daily Summary

Daily Weather History Graph

Daily Weather History Graph

Search for Another Location

Airport or City:

Trip Planner

Search our weather history database for the weather conditions in past years. The results will help you decide how hot, cold, wet, or windy it might be!

Date:

Astronomy

Nov. 16, 2012 Rise Set
Actual Time 7:12 AM EST 5:22 PM EST
Civil Twilight 6:44 AM EST 5:50 PM EST
Nautical Twilight 6:13 AM EST 6:21 PM EST
Astronomical Twilight 5:42 AM EST 6:52 PM EST
Moon 10:04 AM EST (11/16) 8:22 PM EST (11/16)
Length of Visible Light 11h 05m
Length of Day
10h 10m
Waxing Crescent, 11% of the Moon is Illuminated
Nov 16
Waxing Crescent
Nov 20
First Quarter
Nov 28
Full
Dec 6
Last Quarter
Dec 13
New

Hourly Weather History & Observations

Time (EST) Temp. Windchill Dew Point Humidity Pressure Visibility Wind Dir Wind Speed Gust Speed Precip Events Conditions
12:15 AM 28.4 °F - 28.4 °F 100% 30.31 in 10.0 mi Calm Calm - N/A   Unknown
12:35 AM 28.4 °F - 28.4 °F 100% 30.31 in 10.0 mi Calm Calm - N/A   Unknown
12:55 AM 30.2 °F - 28.4 °F 93% 30.31 in 10.0 mi Calm Calm - N/A   Unknown
1:15 AM 28.4 °F - 28.4 °F 100% 30.31 in 10.0 mi Calm Calm - N/A   Unknown
1:35 AM 28.4 °F - 26.6 °F 93% 30.31 in 10.0 mi Calm Calm - N/A   Unknown
1:55 AM 28.4 °F - 26.6 °F 93% 30.31 in 10.0 mi Calm Calm - N/A   Unknown
2:15 AM 28.4 °F - 26.6 °F 93% 30.32 in 10.0 mi Calm Calm - N/A   Unknown
2:35 AM 26.6 °F - 26.6 °F 100% 30.32 in 10.0 mi Calm Calm - N/A   Unknown
2:55 AM 26.6 °F - 26.6 °F 100% 30.32 in 10.0 mi Calm Calm - N/A   Unknown
3:15 AM 26.6 °F - 24.8 °F 93% 30.32 in 10.0 mi Calm Calm - N/A   Unknown
3:35 AM 26.6 °F - 26.6 °F 100% 30.32 in 10.0 mi Calm Calm - N/A   Unknown
3:55 AM 26.6 °F - 26.6 °F 100% 30.32 in 10.0 mi Calm Calm - N/A   Unknown
4:15 AM 26.6 °F - 26.6 °F 100% 30.32 in 10.0 mi Calm Calm - N/A   Unknown
4:35 AM 24.8 °F - 24.8 °F 100% 30.32 in 10.0 mi Calm Calm - N/A   Unknown
4:55 AM 26.6 °F - 24.8 °F 93% 30.32 in 10.0 mi Calm Calm - N/A   Unknown
5:15 AM 24.8 °F - 24.8 °F 100% 30.32 in 10.0 mi Calm Calm - N/A   Unknown
5:35 AM 26.6 °F - 24.8 °F 93% 30.33 in 10.0 mi Calm Calm - N/A   Unknown
5:55 AM 24.8 °F - 24.8 °F 100% 30.33 in 10.0 mi Calm Calm - N/A   Unknown
6:15 AM 24.8 °F - 24.8 °F 100% 30.33 in 10.0 mi Calm Calm - N/A   Unknown
6:35 AM 23.0 °F - 23.0 °F 100% 30.33 in 10.0 mi Calm Calm - N/A   Unknown
6:55 AM 24.8 °F - 24.8 °F 100% 30.34 in 10.0 mi Calm Calm - N/A   Unknown
7:15 AM 23.0 °F - 23.0 °F 100% 30.34 in 10.0 mi Calm Calm - N/A   Unknown
7:35 AM 26.6 °F - 24.8 °F 93% 30.35 in 10.0 mi Calm Calm - N/A   Clear
7:55 AM 26.6 °F - 26.6 °F 100% 30.36 in 10.0 mi Calm Calm - N/A   Clear
8:15 AM 28.4 °F - 26.6 °F 93% 30.37 in 10.0 mi Calm Calm - N/A   Clear
8:35 AM 30.2 °F - 28.4 °F 93% 30.37 in 10.0 mi Calm Calm - N/A   Clear
8:55 AM 32.0 °F - 28.4 °F 87% 30.38 in 10.0 mi Calm Calm - N/A   Clear
9:15 AM 33.8 °F - 30.2 °F 87% 30.38 in 10.0 mi Calm Calm - N/A   Clear
9:35 AM 35.6 °F - 32.0 °F 87% 30.38 in 10.0 mi Calm Calm - N/A   Clear
9:55 AM 39.2 °F - 32.0 °F 75% 30.38 in 10.0 mi Calm Calm - N/A   Clear
10:15 AM 41.0 °F - 32.0 °F 70% 30.37 in 10.0 mi Calm Calm - N/A   Clear
10:35 AM 44.6 °F 43.1 °F 32.0 °F 61% 30.37 in 10.0 mi SSE 3.5 mph - N/A   Clear
10:55 AM 46.4 °F - 32.0 °F 57% 30.37 in 10.0 mi Calm Calm - N/A   Clear
11:15 AM 48.2 °F - 30.2 °F 50% 30.37 in 10.0 mi Calm Calm - N/A   Clear
11:35 AM 48.2 °F - 30.2 °F 50% 30.36 in 10.0 mi South 3.5 mph - N/A   Clear
11:55 AM 50.0 °F - 30.2 °F 47% 30.36 in 10.0 mi Calm Calm - N/A   Clear
12:15 PM 50.0 °F - 28.4 °F 43% 30.35 in 10.0 mi Calm Calm - N/A   Clear
12:35 PM 53.6 °F - 28.4 °F 38% 30.35 in 10.0 mi South 3.5 mph - N/A   Clear
12:55 PM 53.6 °F - 28.4 °F 38% 30.34 in 10.0 mi Calm Calm - N/A   Clear
1:15 PM 53.6 °F - 26.6 °F 35% 30.33 in 10.0 mi Calm Calm - N/A   Clear
1:35 PM 55.4 °F - 26.6 °F 33% 30.32 in 10.0 mi Calm Calm - N/A   Clear
1:55 PM 55.4 °F - 26.6 °F 33% 30.33 in 10.0 mi Calm Calm - N/A   Clear
2:15 PM 55.4 °F - 28.4 °F 36% 30.32 in 10.0 mi Calm Calm - N/A   Clear
2:35 PM 55.4 °F - 28.4 °F 36% 30.31 in 10.0 mi Calm Calm - N/A   Clear
2:55 PM 55.4 °F - 28.4 °F 36% 30.31 in 10.0 mi Calm Calm - N/A   Clear
3:15 PM 57.2 °F - 26.6 °F 31% 30.31 in 10.0 mi Calm Calm - N/A   Clear
3:35 PM 57.2 °F - 28.4 °F 33% 30.32 in 10.0 mi SSW 5.8 mph - N/A   Clear
3:55 PM 57.2 °F - 28.4 °F 33% 30.32 in 10.0 mi Calm Calm - N/A   Clear
4:15 PM 55.4 °F - 28.4 °F 36% 30.33 in 10.0 mi Calm Calm - N/A   Clear
4:35 PM 55.4 °F - 24.8 °F 31% 30.33 in 10.0 mi NNW 5.8 mph - N/A   Clear
4:55 PM 53.6 °F - 24.8 °F 33% 30.33 in 10.0 mi NNW 5.8 mph - N/A   Clear
5:15 PM 51.8 °F - 26.6 °F 38% 30.34 in 10.0 mi North 5.8 mph - N/A   Clear
5:35 PM 50.0 °F - 26.6 °F 40% 30.34 in 10.0 mi North 4.6 mph - N/A   Unknown
5:55 PM 50.0 °F - 26.6 °F 40% 30.35 in 10.0 mi Calm Calm - N/A   Unknown
6:15 PM 48.2 °F - 28.4 °F 46% 30.35 in 10.0 mi Calm Calm - N/A   Clear
6:35 PM 48.2 °F - 26.6 °F 43% 30.36 in 10.0 mi Calm Calm - N/A   Clear
6:55 PM 46.4 °F - 28.4 °F 50% 30.36 in 10.0 mi Calm Calm - N/A   Unknown
7:15 PM 44.6 °F 43.1 °F 26.6 °F 49% 30.37 in 10.0 mi ENE 3.5 mph - N/A   Unknown
7:35 PM 44.6 °F 43.1 °F 26.6 °F 49% 30.37 in 10.0 mi NE 3.5 mph - N/A   Unknown
7:55 PM 44.6 °F - 26.6 °F 49% 30.38 in 10.0 mi Calm Calm - N/A   Unknown
8:15 PM 39.2 °F - 28.4 °F 65% 30.39 in 10.0 mi Calm Calm - N/A   Unknown
8:35 PM 37.4 °F - 28.4 °F 70% 30.39 in 10.0 mi Calm Calm - N/A   Unknown
8:55 PM 35.6 °F - 28.4 °F 75% 30.39 in 10.0 mi Calm Calm - N/A   Unknown
9:15 PM 37.4 °F - 28.4 °F 70% 30.40 in 10.0 mi Calm Calm - N/A   Unknown
9:35 PM 32.0 °F - 28.4 °F 87% 30.40 in 10.0 mi Calm Calm - N/A   Unknown
9:55 PM 35.6 °F - 28.4 °F 75% 30.41 in 10.0 mi Calm Calm - N/A   Unknown
10:15 PM 32.0 °F - 28.4 °F 87% 30.41 in 10.0 mi Calm Calm - N/A   Unknown
10:55 PM 32.0 °F - 28.4 °F 87% 30.41 in 10.0 mi Calm Calm - N/A   Unknown
11:15 PM 32.0 °F - 28.4 °F 87% 30.41 in 10.0 mi Calm Calm - N/A   Unknown
11:35 PM 32.0 °F - 26.6 °F 80% 30.42 in 10.0 mi Calm Calm - N/A   Unknown
11:55 PM 30.2 °F - 26.6 °F 86% 30.42 in 10.0 mi Calm Calm - N/A   Unknown